Regional Weather Roundup
Issued by NWS Raleigh/Durham, NC

Home | Current Version | Previous Version | Text Only | Print | Product List | Glossary On
Versions: 1 2 3 4 5 6 7 8 9 10 11 12 13 14 15 16 17 18 19 20 21 22 23 24 25 26 27 28 29 30 31 32 33 34 35 36 37 38 39 40 41 42 43 44 45 46 47 48 49 50
000
ASUS42 KRAH 040510
RWRRAH
NORTH CAROLINA WEATHER ROUNDUP
NATIONAL WEATHER SERVICE RALEIGH NC
100 AM EDT SAT JUL 04 2015

NOTE: "FAIR" INDICATES FEW OR NO CLOUDS BELOW 12,000 FEET WITH NO
SIGNIFICANT WEATHER AND/OR OBSTRUCTIONS TO VISIBILITY.

NCZ001-053-055-056-065-067-040600-
WESTERN NORTH CAROLINA

CITY           SKY/WX    TMP DP  RH WIND       PRES   REMARKS
ASHEVILLE      CLOUDY    69  60  73 SW10      30.03S
JEFFERSON      DRIZZLE   67  62  84 W8        30.03S
MORGANTON      PTCLDY    67  67 100 SW3       30.02R
HICKORY        PTCLDY    70  67  90 S6        29.96S
RUTHERFORDTON  NOT AVBL
MOUNT AIRY     CLOUDY    71  69  93 CALM      29.97S FOG
BOONE          PTCLDY    65  60  86 SW3       30.04S
$$

NCZ021-022-025-041-071-084-088-040600-
CENTRAL NORTH CAROLINA

CITY           SKY/WX    TMP DP  RH WIND       PRES   REMARKS
CHARLOTTE      MOCLDY    75  64  68 SW14G21   29.97S
GREENSBORO     MOCLDY    71  71 100 SW3       29.93S
WINSTON-SALEM  MOCLDY    70  68  93 CALM      29.95S
RALEIGH-DURHAM CLOUDY    72  70  93 W8        29.92R
FORT BRAGG     MOCLDY    75  70  84 W9        29.93R
FAYETTEVILLE   MOCLDY    77  70  79 SW13      29.93S
BURLINGTON     MOCLDY    73  71  93 S3        29.92S
LAURINBURG     CLOUDY    75  70  84 SW6       29.96S HAZE
$$

NCZ011-015-027-028-043-044-047-080-103-040600-
NORTHEASTERN NORTH CAROLINA

CITY           SKY/WX    TMP DP  RH WIND       PRES   REMARKS
ROCKY MT-WILSO PTCLDY    74  72  93 SW5       29.89S
GREENVILLE     PTCLDY    73  73 100 SW9       29.91S
WASHINGTON     PTCLDY    74  72  95 SW9       29.90S
ELIZABETH CITY PTCLDY    73  73 100 SW5       29.88S FOG
MANTEO         CLEAR     76  75  94 SW10      29.89S
CAPE HATTERAS  PTCLDY    77  72  84 SW17G28   29.92R
$$

NCZ078-087-090-091-093-098-101-040600-
SOUTHEASTERN NORTH CAROLINA

CITY           SKY/WX    TMP DP  RH WIND       PRES   REMARKS
LUMBERTON      MOCLDY    76  70  82 SW9       29.95S
GOLDSBORO      MOCLDY    75  73  92 SW10      29.89S
KINSTON        MOCLDY    76  73  90 SW8G16    29.91S
KENANSVILLE    MOCLDY    74  70  85 SW6       29.94S
NEW BERN       CLEAR     74  71  91 SW9       29.94R
CHERRY POINT   PTCLDY    74  70  87 SW12      29.94R
BEAUFORT       CLEAR     79  73  82 SW20G28   29.94R
JACKSONVILLE   NOT AVBL
WILMINGTON     PTCLDY    76  69  79 SW12      29.96S
$$




USA.gov is the U.S. government's official web portal to all federal, state and local government web resources and services.